Location: San Pelegr�n
(42.1868°N, 0.0079°E)
Time: 18:05:52
(UTC+00:00)

ADEOS Rocket - Pass Details

Date: 24 January 2020
Orbit: 859 x 1306 km, 98.7° (Epoch: 23 February)

Event Time Altitude Azimuth Distance (km) Brightness Sun altitude
Rises 17:45:26 0° 27° (NNE) 3,873 5.7 -8.0°
Reaches altitude 10° 17:48:30 10° 41° (NE) 2,986 5.0 -8.6°
Maximum altitude 17:53:53 24° 93° (E) 2,224 4.3 -9.5°
Drops below altitude 10° 17:59:35 10° 144° (SE) 3,200 5.5 -10.5°
Sets 18:02:58 0° 157° (SSE) 4,212 6.2 -11.1°
